Regional Weather Roundup
Issued by NWS

Home | Current Version | Previous Version | Text Only | Print | Product List | Glossary Off
Versions: 1 2 3 4 5 6 7 8 9 10 11 12 13 14 15 16 17 18 19 20 21 22 23 24 25 26 27 28 29 30 31 32 33 34 35 36 37 38 39 40 41 42 43 44 45 46 47 48 49 50

949
ASUS43 KMPX 181701
RWRMN
WEATHER ROUNDUP FOR MINNESOTA
NATIONAL WEATHER SERVICE TWIN CITIES/CHANHASSEN MN
1100 AM CST SAT NOV 18 2017


NOTE: "FAIR" INDICATES FEW OR NO CLOUDS BELOW 12,000 FEET WITH NO
SIGNIFICANT WEATHER AND/OR OBSTRUCTIONS TO VISIBILITY. N/A MEANS
CURRENT SKY AND/OR WEATHER CONDITIONS ARE NOT AVAILABLE.

MNZ060>063-068>070-181800-
   Twin Cities Metro

CITY           SKY/WX    TMP DP  RH WIND       PRES   REMARKS
TWIN CITIES    SUNNY     35  25  66 NW18      29.82R WCI  24
ST PAUL        MOSUNNY   35  26  69 NW17      29.83R WCI  25
CRYSTAL        SUNNY     34  21  59 NW18      29.82R WCI  23
BLAINE         MOSUNNY   36  27  69 NW14G21   29.82R
LAKEVILLE      SUNNY     34  27  75 NW15G21   29.81R WCI  24
EDEN PRAIRIE   SUNNY     35  23  61 NW16      29.82R WCI  25
SOUTH ST PAUL  MOSUNNY   36  27  71 NW13G20   29.81R
LAKE ELMO      FAIR      34  27  75 NW16G22   29.81S WCI  23
$$
MNZ001>005-007-008-013>017-022>024-027-028-181800-
   Northwest Minnesota

CITY           SKY/WX    TMP DP  RH WIND       PRES   REMARKS
BEMIDJI        CLOUDY    18  12  78 NW15      29.92R WCI   4
HALLOCK        LGT SNOW  18  12  79 NW14G20   29.99S WCI   4
ROSEAU         FLURRIES  18  12  79 NW13      29.94R WCI   4
WARROAD        FLURRIES  16  10  79 NW13G18   29.93R WCI   2
THIEF RVR FALL FLURRIES  18  12  79 NW16      29.98R WCI   3
CROOKSTON      FLURRIES  18  12  79 NW20      30.02R WCI   1
FOSSTON        FLURRIES  18  10  73 NW15      29.97R WCI   3
DETROIT LAKES  MOSUNNY   21  14  73 NW22G28   29.96R WCI   5
MOORHEAD       CLOUDY    21  12  68 N21       30.03R WCI   6
PARK RAPIDS    CLOUDY    22  13  68 NW16G25   29.90R WCI   8
MAHNOMEN       CLOUDY    19  12  75 NW15      29.98R WCI   4
$$
MNZ006-009>011-018-025>026-181800-
   North Central Minnesota

CITY           SKY/WX    TMP DP  RH WIND       PRES   REMARKS
BAUDETTE       CLOUDY    19  13  77 NW17      29.89R WCI   4
FLAG ISLAND    CLOUDY    16  10  79 NW13      29.90R WCI   2
INTL FALLS     CLOUDY    21  14  74 NW10      29.84S WCI  10
WASKISH        CLOUDY    19  12  73 NW13      29.90R WCI   7
BIG FORK       PTSUNNY   21  16  79 NW7       29.85R WCI  13
LONGVILLE      CLOUDY    21  16  79 W12G21    29.88R WCI   9
GRAND RAPIDS   CLOUDY    22  15  75 NW17      29.86R WCI   8
CRANE LAKE     CLOUDY    19  18  93 NW3       29.83S
ORR            CLOUDY    19  16  86 NW10      29.80R WCI   8
COOK           CLOUDY    21  16  79 NW8       29.81S WCI  12
WALKER         CLOUDY    19  12  72 NW12      29.89R WCI   7
$$
MNZ012-019>021-037-181800-
   Northeast Minnesota

CITY           SKY/WX    TMP DP  RH WIND       PRES   REMARKS
DULUTH         MOSUNNY   24  18  77 N14G24    29.75R WCI  12
ELY            FLURRIES  23  18  80 NW6       29.76S WCI  16
HIBBING        CLOUDY    20  15  81 NW15      29.81R WCI   6
EVELETH        FLURRIES  19  12  73 NW10      29.80R WCI   8
DULUTH HARBOR  CLOUDY    30  21  69 NW10      29.82R WCI  21
TWO HARBORS    SUNNY     34  23  64 NW6       29.73S WCI  29
SILVER BAY     SUNNY     30  21  69 NW8       29.72S WCI  23
GRAND MARAIS     N/A     34  24  67 VRB7      29.73S WCI  28
G MARAIS ARPRT PTSUNNY   25  18  74 NW6       29.67R WCI  18
$$
MNZ029>031-032-039>041-046>048-054>057-064-181800-
   West Central Minnesota

CITY           SKY/WX    TMP DP  RH WIND       PRES   REMARKS
FERGUS FALLS   MOSUNNY   21  12  68 N18G25    30.01R WCI   6
WHEATON        MOSUNNY   27  12  54 NW20G28   30.03R WCI  13
MORRIS         PTSUNNY   25  16  68 NW28G33   29.97R WCI   8
ALEXANDRIA     CLOUDY    24  16  71 NW24G31   29.93R WCI   8
ELBOW LAKE     FAIR      23  14  70 W21G26    29.98R HAZE    WCI   8
WADENA         CLOUDY    21  16  79 NW14G24   29.92R WCI   8
GLENWOOD       PTSUNNY   25  18  74 NW21G28   29.93R WCI  10
APPLETON       CLOUDY    27  16  63 NW21G29   29.99R WCI  13
BENSON         PTSUNNY   27  18  69 N23G29    29.98R WCI  12
ORTONVILLE     PTSUNNY   25  16  68 MISG      30.00R
MADISON        CLOUDY    28  19  69 NW23G29   30.00R WCI  14
WILLMAR        FAIR      28  21  74 NW20G26   29.94R WCI  15
$$
MNZ033>034-036-042>043-049>051-058-059-181800-
   Central Minnesota

CITY           SKY/WX    TMP DP  RH WIND       PRES   REMARKS
ST CLOUD       MOSUNNY   30  20  66 NW16G23   29.86R WCI  19
SAUK CENTRE    CLOUDY    26  18  72 NW15G24   29.91R WCI  14
PAYNESVILLE    MOSUNNY   29  21  71 N15G24    29.90R WCI  18
AITKIN         SUNNY     25  16  68 NW13G18   29.84R WCI  13
PINE RIVER     SUNNY     23  12  63 NW13      29.91R WCI  11
BRAINERD       SUNNY     27  15  61 NW15G21   29.86S WCI  15
STAPLES        SUNNY     25  16  68 NW18G25   29.90R WCI  11
LONG PRAIRIE   CLOUDY    27  18  69 W15       29.89S WCI  15
LITTLE FALLS   MOSUNNY   28  12  50 NW12G18   29.88R WCI  18
LITCHFIELD     SUNNY     32  23  69 NW15G23   29.88R WCI  22
BUFFALO        SUNNY     33  21  61 NW13G18   29.87R WCI  23
MAPLE LAKE     SUNNY     32  22  66 NW9       29.87S WCI  24
HUTCHINSON     SUNNY     32  24  70 NW17G24   29.88R WCI  21
$$
MNZ037-044-045-052-053-181800-
   East Central Minnesota

CITY           SKY/WX    TMP DP  RH WIND       PRES   REMARKS
PRINCETON      SUNNY     34  21  60 NW14G20   29.85R WCI  24
MORA           SUNNY     32  23  69 NW16      29.85R WCI  21
CAMBRIDGE      SUNNY     34  21  60 NW14      29.83S WCI  24
RUSH CITY      SUNNY     31  20  66 NW10      29.83S WCI  22
MOOSE LAKE     MOSUNNY   28  19  69 NW9       29.80R WCI  20
HINCKLEY       FAIR      32  21  64 NW8       29.82R WCI  25
CLOQUET        MOSUNNY   25  16  68 NW12G22   29.78S WCI  14
MCGREGOR       SUNNY     27  18  69 NW12      29.84R WCI  16
$$
MNZ071>073-080-081-089-090-097-098-181800-
   Southwest Minnesota

CITY           SKY/WX    TMP DP  RH WIND       PRES   REMARKS
MONTEVIDEO     CLOUDY    28  19  69 N23G30    29.98R WCI  14
GRANITE FALLS  PTSUNNY   30  20  68 NW18G30   29.98R WCI  17
CANBY          CLOUDY    30  18  60 NW20G26   30.00R WCI  17
MARSHALL       MOSUNNY   30  20  66 N25       29.96R WCI  16
REDWOOD FALLS  SUNNY     30  17  58 NW15G24   29.93R WCI  19
OLIVIA         MOSUNNY   30  21  69 NW21G29   29.92R WCI  17
PIPESTONE      SUNNY     32  21  64 N17G29    29.94R WCI  21
WINDOM         SUNNY     30  16  55 NW24      29.89R WCI  16
WORTHINGTON    MOSUNNY   32  20  61 NW21      29.92R WCI  20
JACKSON        SUNNY     32  21  64 NW24      29.88R WCI  19
SLAYTON        MOSUNNY   30  20  64 NW21G26   29.92R WCI  18
$$
MNZ065>067-074>077-082>085-091>093-181800-
   South Central Minnesota

CITY           SKY/WX    TMP DP  RH WIND       PRES   REMARKS
MANKATO        SUNNY     33  23  66 NW20G26   29.85R WCI  21
NEW ULM        SUNNY     30  19  64 NW22G28   29.88R WCI  17
ST JAMES       SUNNY     30  19  64 NW24      29.89R WCI  16
FAIRMONT       SUNNY     33  21  61 NW29G38   29.86R WCI  19
GLENCOE        SUNNY     34  24  66 NW16      29.85S WCI  23
FARIBAULT      SUNNY     36  27  69 NW13G20   29.81R
OWATONNA       SUNNY     37  30  75 NW16      29.80S
WASECA         SUNNY     34  30  86 NW16G23   29.84R WCI  23
ALBERT LEA     MOSUNNY   32  32 100 NW17G23   29.80R WCI  21
$$
MNZ078>079-086>088-094>096-181800-
   Southeast Minnesota

CITY           SKY/WX    TMP DP  RH WIND       PRES   REMARKS
ROCHESTER      MOSUNNY   36  32  85 NW21      29.75R
RED WING       MOSUNNY   36  27  69 NW10G20   29.78R
STANTON        SUNNY     36  29  74 NW15      29.79R
DODGE CENTER   MOSUNNY   36  30  80 NW17G23   29.76R
WINONA         MOSUNNY   39  32  75 NW13      29.74R
AUSTIN         MOSUNNY   36  30  80 NW15      29.77R
PRESTON        MOSUNNY   37  31  79 N16G23    29.74R
$$
ABBREVIATIONS USED IN REMARKS
   TC - TEMPERATURES IN CELSIUS
  WCI - WIND CHILL INDEX
   HX - HEAT INDEX
  VSB - VISIBILITY
$$




USA.gov is the U.S. government's official web portal to all federal, state and local government web resources and services.